Weather in Devitsa

Russia / Voronezh Oblast     51°38′37″N   38°57′28″E
temp.,
°C
wind,
m/s
gust,
m/s
humid.,
%
clouds,
%
prec.,
mm/h
press.,
hPa
HPBL,
m
25 february, thu
thu2500:00−12ssw4995100 0.6 1035396
03:00−11ssw4994100 1.0 1032394
06:00−9ssw4994100 0.1 1029362
09:00−7sw51093100 0.3 1027386
12:00−2sw51094100 0.1 1024458
15:00+1sw71399100 0.1 1021426
18:00+2w61398100 0.3 1019425
21:00+2w41199100 0.3 1020291
26 february, fri
fri2600:00+2wnw41199100 0.0 1019337
03:00+2wnw51298100 0.1 1020313
06:00+2wnw51298100 0.0 1018312
09:00+2w51199100 0.0 1018305
12:00+2w51299100 0.0 1016367
15:00+2w71499100 0.0 1015519
18:00+3w61498100 0.2 1012508
21:00+3w51497100 0.3 1012478
27 february, sat
sat2700:00+2wnw51296100 0.0 1011491
03:00+1w51193100 0.0 1010403
06:00+1w51194100 0.0 1009504
09:00+1wnw61195100 0.1 1008651
12:00+1w5119693 0.0 1008627
15:00+2w6129597 0.1 1008656
18:00+1wnw51197100 0.1 1008567
21:00+1wnw4998100 0.3 1009465
28 february, sun
sun2800:000nw4992100 0.0 1010448
03:00−1nnw389499 0.2 1011331
06:00−2n489088 0.1 1013625
09:00−4n468791 0.1 1015530
12:00−3nnw578295 0.0 1017595
15:00−3nnw588295 0.1 1018635
18:00−3n588598 0.1 1019762
21:00−3n379295 0.1 1022419
1 march, mon
mon100:00−3n389283 0.1 1023502
03:00−4nnw379383 0.1 1025383
06:00−5n378995 0.1 1026481
09:00−5nnw258871 0.1 1028357
12:00−3nnw467951 0.0 1029778
15:00−3nnw357676 0.1 1030799
18:00−4nw368446 0.0 1030340
21:00−5wnw368824 0.0 1031241